Location: Unspecified
(0.0000°N, 0.0000°E)
Time: 17:51:56
(UTC+00:00)

STARLINK 1026 - Pass Details

Date: 17 January 2020
Orbit: 347 x 352 km, 53.0° (Epoch: 18 January)

Event Time Altitude Azimuth Distance (km) Brightness Sun altitude
Rises 05:22:33 0° 211° (SSW) 2,143 6.5 -11.0°
Reaches altitude 10° 05:24:33 10° 209° (SSW) 1,299 5.5 -10.6°
Maximum altitude 05:27:26 71° 124° (SE) 368 2.9 -9.9°
Drops below altitude 10° 05:30:18 10° 39° (NE) 1,293 5.8 -9.2°
Sets 05:32:18 0° 37° (NE) 2,130 6.9 -8.8°
